Starlink 6109

operational
NORAD ID: 56094 Int'l Des: 2023-046 Owner: SPXS Country: US Constellation: starlink
LEOCIRCULAR

About Starlink 6109

Description loading...

Live Position

Loading 3D Globe...

Upcoming Passes

Altitude History

Altitude vs Time

uPlot chart will show altitude changes over time

Two-Line Element Set

1 56094U 23046B 25303.55535824 -.00000316 00000-0 -83116-5 0 9995
2 56094 42.9997 146.2976 0001012 279.2888 80.7840 15.02537879142482
Epoch: Oct 30, 2025 • Age: 27 hours

Current Status

Altitude 569.0 km
Velocity 7.58 km/s
Sub-Earth Point -36.42°S, 165.34°E
Launch Date Mar 29, 2023
Age 2.5 years
Type internet

Technical Details

Classification Payload
Mass 305.00 kg
Dry Mass 290.00 kg
Total Mass 305.00 kg
Length 0.20 m
Diameter 2.80 m
Span 9.00 m
Shape Box + pan
Manufacturer SPXS
Bus Type Starlink
Phase Status In Orbit
Owner/State SPXS/US

Large Constellations

Loading constellations...